OBJECT C (43760 NORAD) Tracking and Keplerian Element Data

This shows tracking and keplerian element data for the satellite.

Feedback or suggestion? Click here.




ElementValue
Catalog43760
NameOBJECT C
Epoch Orbit674
Epoch Day17.86266635
Epoch Year2019
RAAN91.5671
Inclination97.7625
Eccentricity0.0015385
Argument of Perigee111.9317
Mean Anonmoly248.354
Mean Motion14.95037227
Decay Rate4.37E-06
L11 43760U 18099C 19017.86266635 .00000437 00000-0 45153-4 0 9993
L22 43760 97.7625 91.5671 0015385 111.9317 248.3540 14.95037227 6745

Live tracking and technical data element details for OBJECT C (NORAD 43760). OBJECT C can be tracked NOW for your location showing map with azimuth and elevation plus other details from your city location.

Track the satellite on the map from your city or location and see movement details for azimuth, elevation, latitude, longitude, range, height, and movement on the map or in text.







IsCatalogInMostPopularTable: catalog: 43760, numindb: 27
Update: records affected: 1



GetName: 43760 OBJECT C

Hit Count: updated at: Wed, 23 Jan 2019 03:10:11 GMT